[[{"header":{"parameterUnit":"m.s-1","parameterCategory":1,"la1":30.2991,"la2":30.254,"lo1":-89.0895,"lo2":-89.0444,"dy":0.0017,"dx":0.0017,"nx":28,"ny":28,"refTime":"2025-01-29T09:00:00:Z","depth":0,"parameterNumber":2,"parameterNumberName":"U-component_of_WINDS"},"data":[0,0,0,0,0,0,0,0,0,0,0,0,0,0,0,0,0,0,0,0,0,0,0,0,0,0,0,0,0,0,0,0,0,0,0,0,0,0,0,0,0,0,0,0,0,0,0,0,0,0,0,0,0,0,0,0,0,0,0.2258,0.2259,0,0.2299,0.23,0.23,0.2305,0.2304,0.2304,0.2304,0.2346,0.2347,0.2349,0,0,0,0,0,0,0,0,0,0,0,0,0,0.2185,0.2187,0.2258,0.2259,0.2259,0.2299,0.23,0.23,0.2305,0.2304,0.2304,0.2303,0.2345,0.2347,0.2349,0,0,0,0,0,0,0,0,0,0,0,0,0,0.2221,0.2187,0.2258,0.2266,0.2267,0.2299,0.23,0.23,0.2305,0.2304,0.2304,0.2303,0.2345,0.2347,0.2349,0.2375,0,0,0.2356,0.2357,0,0,0,0,0,0,0,0,0.2219,0.2223,0.2265,0.2266,0.2267,0.2296,0.2289,0.2325,0.2305,0.2291,0.2304,0.2303,0.233,0.2333,0.2342,0.2377,0.2379,0.2356,0.2358,0.2359,0.2359,0,0,0,0,0,0,0,0.2216,0.2222,0.2274,0.2265,0.2267,0.2268,0.2273,0.2296,0.2313,0.2292,0.2292,0.2297,0.233,0.234,0.2343,0.238,0.2356,0.2358,0.236,0.2361,0.244,0.244,0,0,0,0,0,0,0.2212,0.222,0.2273,0.2276,0.2241,0.227,0.2275,0.2287,0.2313,0.2316,0.2298,0.2297,0.2337,0.2341,0.2345,0.2378,0.2359,0.2361,0.2362,0.2439,0.244,0.2441,0,0,0,0,0,0,0.2211,0.2217,0.2271,0.2248,0.2255,0.2272,0.2286,0.2289,0.2298,0.2317,0.232,0.2304,0.2336,0.2342,0.2368,0.238,0.2362,0.2364,0.2438,0.2439,0.244,0.2444,0,0,0,0,0,0,0.2208,0.2216,0.2226,0.2248,0.2256,0.2293,0.2287,0.229,0.2302,0.2302,0.2324,0.2328,0.2336,0.2365,0.237,0.2382,0.2366,0.2437,0.2439,0.244,0.2443,0.2445,0.2447,0,0,0,0,0,0.2206,0.2225,0.2226,0.2233,0.2268,0.2294,0.2299,0.2308,0.2303,0.2313,0.2326,0.2327,0.2377,0.2367,0.2374,0.2387,0.2436,0.2438,0.244,0.2442,0.2445,0.2447,0,0,0,0,0,0,0.2204,0.2228,0.223,0.2257,0.2273,0.2295,0.2308,0.2311,0.2329,0.2328,0.2339,0.2344,0.2371,0.2381,0.2369,0.2414,0.2406,0.241,0.2406,0.2409,0.2411,0.2408,0.2367,0,0,0,0,0,0.2207,0.2225,0.2245,0.2267,0.2276,0.229,0.2302,0.2308,0.2326,0.2333,0.2347,0.2364,0.2384,0.2397,0.2416,0.2445,0.245,0.2457,0.2459,0.246,0.2463,0.248,0.2484,0.2446,0.2446,0.2446,0,0,0.2213,0.2228,0.2239,0.2268,0.2281,0.2301,0.2296,0.2317,0.2332,0.2336,0.2362,0.2373,0.2393,0.2421,0.2434,0.2431,0.2475,0.2463,0.2464,0.2466,0.2482,0.2486,0.2489,0.2447,0.2447,0.2447,0,0,0.2234,0.2247,0.2267,0.2281,0.2302,0.2311,0.2316,0.2338,0.2345,0.2372,0.2376,0.2393,0.2427,0.2442,0.2454,0.2481,0.2484,0.2487,0.2498,0.2515,0.2518,0.252,0.2531,0.2535,0.249,0.249,0.249,0,0.2238,0.2268,0.2277,0.2298,0.2311,0.2316,0.2337,0.235,0.2376,0.2385,0.2381,0.2424,0.2438,0.247,0.2477,0.2486,0.2492,0.2485,0.2516,0.2519,0.2522,0.2533,0.2536,0.249,0.249,0.249,0.249,0,0.2273,0.2293,0.2307,0.2333,0.2347,0.2368,0.2381,0.2395,0.24,0.241,0.2437,0.2454,0.2478,0.2486,0.249,0.2519,0.2516,0.2514,0.2507,0.2526,0.2536,0.254,0.2491,0.2491,0.249,0.249,0,0,0.2294,0.2325,0.233,0.2342,0.2366,0.2382,0.2403,0.2426,0.2438,0.2456,0.2475,0.2504,0.2502,0.2516,0.2522,0.2537,0.2559,0.2533,0.2534,0.2538,0.2593,0.2595,0.2599,0.2561,0.2561,0.2562,0.2592,0,0.2318,0.2356,0.2366,0.2399,0.2418,0.2424,0.2443,0.246,0.247,0.2489,0.25,0.2521,0.2517,0.2526,0.254,0.2553,0.257,0.2551,0.2579,0.258,0.2575,0.2604,0.2606,0.2633,0.2595,0.2596,0.2597,0,0.2351,0.2371,0.2405,0.2428,0.2436,0.2453,0.2476,0.2493,0.2513,0.2519,0.2535,0.254,0.2564,0.2555,0.2588,0.2575,0.2587,0.2595,0.2597,0.26,0.259,0.261,0.2642,0.2646,0.2603,0.2602,0.2602,0,0.2364,0.2399,0.2424,0.2434,0.2461,0.2473,0.2484,0.2503,0.2517,0.2537,0.2546,0.2568,0.258,0.2597,0.2609,0.2601,0.2642,0.2633,0.2649,0.2648,0.2657,0.2657,0.2693,0.2664,0.2664,0.2664,0.2663,0,0.2391,0.2412,0.2431,0.2446,0.2471,0.2482,0.2506,0.2518,0.2535,0.2554,0.256,0.2577,0.2591,0.2611,0.262,0.2647,0.2652,0.2659,0.2661,0.2659,0.2658,0.2667,0.2666,0.2665,0.2664,0.2664,0.2664,0,0.2409,0.2422,0.2451,0.2474,0.248,0.2497,0.2517,0.2533,0.2544,0.2568,0.2574,0.2592,0.2615,0.2629,0.2658,0.2664,0.2694,0.2695,0.2688,0.2689,0.2704,0.2703,0.2748,0.2755,0.272,0.272,0.2721,0,0.2426,0.2442,0.2467,0.248,0.2492,0.2513,0.2527,0.2539,0.2554,0.2578,0.2591,0.2615,0.2635,0.2673,0.2689,0.2712,0.2714,0.2728,0.2717,0.2715,0.2715,0.2714,0.2717,0.273,0.273,0.2731,0.2731,0,0.2454,0.246,0.248,0.2502,0.2519,0.2538,0.2556,0.2566,0.2582,0.2598,0.2622,0.2638,0.2668,0.2692,0.2717,0.2729,0.2733,0.2734,0.2739,0.2737,0.2732,0.2736,0.2694,0.2733,0.2733,0.2733,0.2733,0.2732,0.2472,0.2488,0.2508,0.2531,0.2546,0.2563,0.258,0.2593,0.2614,0.2639,0.2645,0.2671,0.2692,0.2725,0.2738,0.2759,0.2757,0.2764,0.2766,0.2767,0.2768,0.2728,0.2764,0.2764,0.2764,0.2764,0.2764,0,0.2502,0.2515,0.2536,0.2561,0.2579,0.2581,0.2602,0.2617,0.264,0.2658,0.2678,0.2707,0.273,0.2748,0.2773,0.2786,0.2789,0.2792,0.2792,0.2795,0.2769,0.2762,0.279,0.279,0.279,0.279,0.279,0.279,0.2519,0.2546,0.2554,0.2589,0.2603,0.2628,0.264,0.2656,0.2671,0.2703,0.2723,0.2734,0.2753,0.2779,0.2802,0.2806,0.2815,0.2819,0.2824,0.2799,0.2797,0.2794,0.2788,0.2821,0.2821,0.2849,0.2849,0.2849]},{"header":{"parameterUnit":"m.s-1","parameterCategory":1,"la1":30.2991,"la2":30.254,"lo1":-89.0895,"lo2":-89.0444,"dy":0.0017,"dx":0.0017,"nx":28,"ny":28,"refTime":"2025-01-29T09:00:00:Z","depth":0,"parameterNumber":3,"parameterNumberName":"V-component_of_WINDS"},"data":[0,0,0,0,0,0,0,0,0,0,0,0,0,0,0,0,0,0,0,0,0,0,0,0,0,0,0,0,0,0,0,0,0,0,0,0,0,0,0,0,0,0,0,0,0,0,0,0,0,0,0,0,0,0,0,0,0,0,-1.6171,-1.6171,0,-1.6224,-1.6225,-1.6226,-1.6216,-1.6216,-1.6215,-1.6214,-1.6269,-1.6271,-1.6273,0,0,0,0,0,0,0,0,0,0,0,0,0,-1.6061,-1.6063,-1.6171,-1.6171,-1.6172,-1.6224,-1.6225,-1.6226,-1.6217,-1.6216,-1.6214,-1.6213,-1.6268,-1.6271,-1.6273,0,0,0,0,0,0,0,0,0,0,0,0,0,-1.6111,-1.6064,-1.617,-1.6174,-1.6175,-1.6224,-1.6225,-1.6226,-1.6217,-1.6215,-1.6214,-1.6213,-1.6267,-1.627,-1.6274,-1.6323,0,0,-1.6284,-1.6286,0,0,0,0,0,0,0,0,-1.6108,-1.6115,-1.6173,-1.6174,-1.6175,-1.6212,-1.6206,-1.6259,-1.6217,-1.6201,-1.6214,-1.6212,-1.6251,-1.6256,-1.6269,-1.6326,-1.6328,-1.6285,-1.6287,-1.6288,-1.6289,0,0,0,0,0,0,0,-1.6105,-1.6113,-1.6192,-1.6173,-1.6175,-1.6173,-1.6178,-1.6216,-1.6233,-1.6202,-1.6202,-1.6208,-1.6251,-1.6266,-1.627,-1.6329,-1.6285,-1.6288,-1.629,-1.6291,-1.6431,-1.6432,0,0,0,0,0,0,-1.61,-1.611,-1.619,-1.6193,-1.6137,-1.6176,-1.6182,-1.6202,-1.6233,-1.6236,-1.6209,-1.6207,-1.626,-1.6266,-1.6272,-1.6333,-1.6288,-1.6292,-1.6294,-1.6429,-1.6431,-1.6433,0,0,0,0,0,0,-1.6098,-1.6107,-1.6188,-1.6151,-1.6162,-1.6179,-1.6201,-1.6203,-1.6218,-1.6238,-1.6241,-1.6221,-1.6259,-1.6267,-1.6311,-1.6334,-1.6293,-1.6296,-1.6427,-1.643,-1.6432,-1.6454,0,0,0,0,0,0,-1.6095,-1.6107,-1.6125,-1.6152,-1.6164,-1.6226,-1.6203,-1.6205,-1.6224,-1.6222,-1.625,-1.6253,-1.6259,-1.6306,-1.6314,-1.6338,-1.6299,-1.6425,-1.6428,-1.6431,-1.6451,-1.6457,-1.6462,0,0,0,0,0,-1.6091,-1.6129,-1.6126,-1.6136,-1.6187,-1.6227,-1.6234,-1.624,-1.6226,-1.6245,-1.6258,-1.6252,-1.633,-1.631,-1.632,-1.6345,-1.6424,-1.6427,-1.6431,-1.6449,-1.6456,-1.6461,0,0,0,0,0,0,-1.6105,-1.6133,-1.613,-1.6178,-1.62,-1.6226,-1.625,-1.6247,-1.6274,-1.6271,-1.6278,-1.6284,-1.6329,-1.6341,-1.6318,-1.6396,-1.6375,-1.6381,-1.6385,-1.6392,-1.6397,-1.6393,-1.6302,0,0,0,0,0,-1.6114,-1.6143,-1.6166,-1.6207,-1.6218,-1.6232,-1.625,-1.6253,-1.6276,-1.6285,-1.6302,-1.6325,-1.6355,-1.6374,-1.6403,-1.6453,-1.6459,-1.6476,-1.6481,-1.6485,-1.649,-1.6518,-1.6526,-1.6445,-1.6444,-1.6444,0,0,-1.6132,-1.6151,-1.6169,-1.621,-1.6227,-1.6259,-1.624,-1.6273,-1.6297,-1.629,-1.6333,-1.6346,-1.6372,-1.6419,-1.6441,-1.6432,-1.6514,-1.6489,-1.6493,-1.6495,-1.6523,-1.653,-1.6537,-1.6447,-1.6447,-1.6446,0,0,-1.6181,-1.6198,-1.6234,-1.6252,-1.6279,-1.6289,-1.6297,-1.6323,-1.6332,-1.6374,-1.6371,-1.6398,-1.645,-1.6469,-1.6485,-1.6542,-1.6538,-1.6552,-1.6579,-1.6606,-1.6613,-1.6618,-1.6639,-1.6647,-1.6556,-1.6556,-1.6556,0,-1.62,-1.6247,-1.6253,-1.6287,-1.6305,-1.6301,-1.6338,-1.6355,-1.639,-1.6403,-1.6392,-1.6457,-1.6474,-1.6526,-1.654,-1.6553,-1.6564,-1.6548,-1.6611,-1.6617,-1.6622,-1.6642,-1.665,-1.6558,-1.6558,-1.6558,-1.6557,0,-1.6269,-1.6301,-1.6327,-1.6361,-1.6383,-1.6418,-1.643,-1.645,-1.6452,-1.6463,-1.6507,-1.6527,-1.656,-1.6573,-1.6575,-1.6626,-1.6619,-1.661,-1.6589,-1.6631,-1.665,-1.6658,-1.656,-1.6559,-1.6559,-1.6559,0,0,-1.6328,-1.6366,-1.6375,-1.6391,-1.6421,-1.6446,-1.6481,-1.6514,-1.6532,-1.6556,-1.6586,-1.663,-1.6622,-1.6641,-1.6644,-1.6669,-1.6713,-1.6656,-1.6657,-1.6666,-1.6772,-1.6779,-1.6788,-1.6711,-1.6712,-1.6713,-1.677,0,-1.638,-1.6442,-1.6449,-1.6505,-1.6535,-1.6533,-1.6563,-1.6585,-1.6596,-1.6624,-1.6636,-1.6668,-1.6654,-1.6665,-1.6689,-1.6703,-1.6735,-1.6699,-1.6739,-1.674,-1.6733,-1.6798,-1.6805,-1.6857,-1.6777,-1.6778,-1.6779,0,-1.6449,-1.6476,-1.6535,-1.6561,-1.6574,-1.6602,-1.6632,-1.6659,-1.6684,-1.669,-1.6712,-1.6713,-1.6749,-1.6728,-1.6779,-1.6754,-1.6771,-1.6781,-1.6783,-1.6787,-1.6762,-1.6803,-1.6874,-1.6882,-1.6791,-1.679,-1.6789,0,-1.6486,-1.6537,-1.6579,-1.6593,-1.6625,-1.6644,-1.6658,-1.6682,-1.6702,-1.6729,-1.6741,-1.6772,-1.6789,-1.6813,-1.6823,-1.6806,-1.6874,-1.6853,-1.6881,-1.688,-1.6895,-1.6894,-1.6969,-1.6905,-1.6905,-1.6905,-1.6905,0,-1.6544,-1.658,-1.6596,-1.6622,-1.6663,-1.6671,-1.6711,-1.6724,-1.6746,-1.6774,-1.6774,-1.6801,-1.6812,-1.684,-1.6848,-1.689,-1.6897,-1.6904,-1.6905,-1.6904,-1.6903,-1.6915,-1.6912,-1.6907,-1.6907,-1.6906,-1.6906,0,-1.6592,-1.6605,-1.665,-1.6677,-1.6685,-1.6714,-1.6737,-1.6762,-1.6773,-1.6809,-1.6818,-1.6836,-1.687,-1.6882,-1.6923,-1.6928,-1.6976,-1.6975,-1.6968,-1.6968,-1.6995,-1.6993,-1.7081,-1.7094,-1.7022,-1.7022,-1.7023,0,-1.6628,-1.6656,-1.6686,-1.6705,-1.672,-1.6751,-1.6771,-1.678,-1.6801,-1.6832,-1.6854,-1.6888,-1.6915,-1.697,-1.6986,-1.7018,-1.7017,-1.7046,-1.7022,-1.702,-1.7018,-1.7017,-1.702,-1.7051,-1.7051,-1.7052,-1.7053,0,-1.6691,-1.6696,-1.6724,-1.6756,-1.678,-1.6805,-1.6829,-1.6845,-1.6858,-1.6881,-1.6916,-1.6938,-1.698,-1.7014,-1.7047,-1.7061,-1.706,-1.706,-1.7068,-1.7067,-1.7062,-1.7066,-1.698,-1.7058,-1.7057,-1.7057,-1.7057,-1.7057,-1.6734,-1.6759,-1.6784,-1.6817,-1.6836,-1.6859,-1.6884,-1.6899,-1.6928,-1.6963,-1.6967,-1.7005,-1.703,-1.7074,-1.709,-1.712,-1.7112,-1.7124,-1.7127,-1.713,-1.7132,-1.7057,-1.7126,-1.7126,-1.7126,-1.7126,-1.7125,0,-1.6797,-1.6813,-1.6843,-1.6877,-1.6903,-1.6899,-1.6926,-1.6948,-1.6981,-1.7005,-1.7032,-1.7073,-1.7106,-1.7125,-1.7158,-1.7178,-1.7178,-1.7187,-1.7186,-1.7189,-1.7137,-1.7127,-1.7186,-1.7186,-1.7186,-1.7186,-1.7186,-1.7186,-1.6833,-1.6875,-1.6883,-1.6935,-1.6951,-1.6988,-1.7004,-1.7025,-1.7044,-1.709,-1.7117,-1.713,-1.7152,-1.7187,-1.7217,-1.7222,-1.7235,-1.7244,-1.7248,-1.7199,-1.7193,-1.7187,-1.7177,-1.7247,-1.7247,-1.7298,-1.7299,-1.7299]}]]